Overview Statistics Trail Chart Weather Telemetry Raw packets
 

This is the latest recevied weather packets stored in our database for station/object WX4SGA. If no packets are shown the sender has not sent any weather packets the latest 10 day(s).

<< 33 34 35 36 37 38 39 >>
Time Temp. Humidity Pressure Rain* Wind** Luminosity Snow
1788388452 32.22° C 58% 1016.3 hPa 0 mm - 62 W/m² -
1788388147 32.22° C 58% 1016.3 hPa 0 mm - 66 W/m² -
1788387840 32.22° C 56% 1016.6 hPa 0 mm - 75 W/m² -
1788387540 32.78° C 55% 1016.3 hPa 0 mm - 87 W/m² -
1788387239 32.78° C 60% 1016.3 hPa 0 mm - 204 W/m² -
1788386935 32.78° C 57% 1016.3 hPa 0 mm - 220 W/m² -
1788386634 32.78° C 57% 1016.3 hPa 0 mm - 239 W/m² -
1788386329 32.78° C 55% 1016.3 hPa 0 mm - 250 W/m² -
1788386024 32.78° C 56% 1016.3 hPa 0 mm - 174 W/m² -
1788385720 32.78° C 55% 1016.3 hPa 0 mm - 293 W/m² -
1788385419 32.78° C 60% 1016.3 hPa 0 mm - 310 W/m² -
1788385114 32.78° C 57% 1016.3 hPa 0 mm - 331 W/m² -
1788384810 32.78° C 56% 1015.9 hPa 0 mm - 348 W/m² -
1788384508 32.78° C 55% 1016.3 hPa 0 mm - 365 W/m² -
1788384206 32.78° C 57% 1016.3 hPa 0 mm - 382 W/m² -
1788383902 32.78° C 57% 1016.3 hPa 0 mm - 349 W/m² -
1788383597 32.78° C 56% 1016.3 hPa 0 mm - 87 W/m² -
1788383292 32.78° C 56% 1016.3 hPa 0 mm - 232 W/m² -
1788382992 32.78° C 59% 1016.3 hPa 0 mm - 66 W/m² -
1788382690 32.78° C 56% 1016.3 hPa 0 mm - 69 W/m² -
1788382385 32.78° C 58% 1016.3 hPa 0 mm - 78 W/m² -
1788382081 33.33° C 57% 1016.3 hPa 0 mm - 109 W/m² -
1788381775 33.33° C 56% 1016.3 hPa 0 mm - 329 W/m² -
1788381470 32.78° C 58% 1016.3 hPa 0 mm - 526 W/m² -
1788381165 33.33° C 57% 1016.6 hPa 0 mm - 547 W/m² -

* Rain latest hour (hover to see other rain measurements)
** Current wind speed in m/s (hover to see current wind gust speed)